[[{"header":{"parameterUnit":"m.s-1","parameterCategory":1,"la1":30.2992,"la2":30.254,"lo1":-89.0895,"lo2":-89.0443,"dy":0.0025,"dx":0.0025,"nx":19,"ny":19,"refTime":"2026-04-26T09:00:00:Z","depth":0,"parameterNumber":2,"parameterNumberName":"U-component_of_WINDS"},"data":[0,0,0,-3.6315,-3.6309,-3.5991,-3.599,-3.5623,-3.562,0,0,0,0,0,0,0,0,0,0,0,-3.6445,-3.6444,-3.6315,-3.6309,-3.5992,-3.599,-3.5623,-3.562,0,0,0,0,0,0,0,0,0,0,0,-3.6446,-3.6444,-3.6443,-3.6308,-3.5992,-3.599,-3.5624,-3.5846,0,0,0,0,0,0,0,0,0,0,-3.6147,-3.6305,-3.6445,-3.6443,-3.6306,-3.5992,-3.5989,-3.5856,-3.5832,-3.5787,0,-3.5768,0,-3.569,-3.5599,-3.5598,0,0,0,-3.6278,-3.6326,-3.6209,-3.6443,-3.6304,-3.5993,-3.6126,-3.5842,-3.5816,-3.5756,-3.5762,-3.5747,-3.5684,-3.5597,-3.5595,-3.5468,-3.5469,0,0,-3.6295,-3.6404,-3.6228,-3.6194,-3.626,-3.6136,-3.6116,-3.5825,-3.5834,-3.5761,-3.5738,-3.5678,-3.5595,-3.5593,-3.5467,-3.5468,0,0,0,-3.6367,-3.6418,-3.6307,-3.621,-3.6151,-3.6128,-3.6105,-3.5847,-3.5802,-3.5733,-3.5673,-3.5593,-3.5589,-3.5466,-3.5467,-3.562,0,0,0,-3.6376,-3.6459,-3.6316,-3.6379,-3.6158,-3.5998,-3.6134,-3.5823,-3.5786,-3.5675,-3.5593,-3.5586,-3.5465,-3.5467,-3.5614,-3.5671,0,0,0,-3.6453,-3.6467,-3.6436,-3.6386,-3.6255,-3.6,-3.5938,-3.5812,-3.5751,-3.5598,-3.5585,-3.5464,-3.5466,-3.5608,-3.5661,-3.567,0,0,0,-3.6563,-3.6568,-3.644,-3.6421,-3.6259,-3.6102,-3.5938,-3.5812,-3.5699,-3.5591,-3.5465,-3.5467,-3.5606,-3.5655,-3.5665,-3.5698,-3.5723,0,0,-3.6629,-3.658,-3.656,-3.6436,-3.6333,-3.6141,-3.6052,-3.5839,-3.5717,-3.5555,-3.555,-3.5616,-3.5661,-3.5669,-3.5826,-3.5847,0,0,0,-3.6618,-3.6605,-3.6554,-3.6458,-3.6305,-3.6173,-3.5965,-3.5885,-3.5744,-3.5662,-3.5618,-3.5641,-3.5642,-3.5651,-3.5669,-3.566,-3.5478,-3.5477,-3.5477,-3.6863,-3.6719,-3.6676,-3.6495,-3.6403,-3.6191,-3.6099,-3.5954,-3.5826,-3.5819,-3.5769,-3.5884,-3.59,-3.5912,-3.5905,-3.5775,-3.5776,-3.5776,-3.5777,-3.6945,-3.6903,-3.6745,-3.6647,-3.6491,-3.64,-3.6194,-3.6109,-3.5996,-3.5908,-3.59,-3.5817,-3.594,-3.5926,-3.5786,-3.5785,-3.5783,-3.5783,-3.5782,-3.7088,-3.7043,-3.6956,-3.6805,-3.6701,-3.6512,-3.6416,-3.6273,-3.6136,-3.613,-3.606,-3.6057,-3.6034,-3.6108,-3.6108,-3.6109,-3.6109,-3.6109,-3.6109,-3.7271,-3.7167,-3.711,-3.6952,-3.6872,-3.6749,-3.6537,-3.645,-3.6316,-3.6218,-3.6217,-3.6089,-3.5983,-3.5958,-3.6115,-3.6114,-3.6113,-3.6113,-3.6112,-3.7404,-3.7353,-3.7265,-3.7188,-3.6988,-3.6894,-3.6717,-3.6554,-3.646,-3.6416,-3.629,-3.6236,-3.617,-3.6155,-3.6133,-3.6325,-3.6325,-3.6325,-3.6325,-3.7524,-3.7481,-3.736,-3.7245,-3.7114,-3.6947,-3.6841,-3.6676,-3.6492,-3.6424,-3.6375,-3.6335,-3.6326,-3.6265,-3.6247,-3.6224,-3.6436,-3.6436,-3.6436,-3.7596,-3.7535,-3.7479,-3.7314,-3.7148,-3.7005,-3.6901,-3.6764,-3.6544,-3.6437,-3.6366,-3.6361,-3.6294,-3.6281,-3.617,-3.6145,-3.61,0,0]},{"header":{"parameterUnit":"m.s-1","parameterCategory":1,"la1":30.2992,"la2":30.254,"lo1":-89.0895,"lo2":-89.0443,"dy":0.0025,"dx":0.0025,"nx":19,"ny":19,"refTime":"2026-04-26T09:00:00:Z","depth":0,"parameterNumber":3,"parameterNumberName":"V-component_of_WINDS"},"data":[0,0,0,-2.5445,-2.5449,-2.5724,-2.5725,-2.5999,-2.6001,0,0,0,0,0,0,0,0,0,0,0,-2.5322,-2.5323,-2.5444,-2.545,-2.5723,-2.5725,-2.5999,-2.6001,0,0,0,0,0,0,0,0,0,0,0,-2.5322,-2.5322,-2.5323,-2.5451,-2.5723,-2.5725,-2.5998,-2.5818,0,0,0,0,0,0,0,0,0,0,-2.5564,-2.5412,-2.5322,-2.5323,-2.5452,-2.5723,-2.5725,-2.581,-2.5829,-2.5844,0,-2.585,0,-2.593,-2.6015,-2.6016,0,0,0,-2.548,-2.5396,-2.5508,-2.5323,-2.5454,-2.5722,-2.5608,-2.5822,-2.5843,-2.5868,-2.5855,-2.5867,-2.5934,-2.6016,-2.6017,-2.6011,-2.601,0,0,-2.5464,-2.5348,-2.5493,-2.5519,-2.5478,-2.5599,-2.5616,-2.5835,-2.5811,-2.5856,-2.5875,-2.5939,-2.6018,-2.6019,-2.6013,-2.6011,0,0,0,-2.5401,-2.5336,-2.5445,-2.5506,-2.5561,-2.5607,-2.5626,-2.5802,-2.5847,-2.5879,-2.5942,-2.6019,-2.6021,-2.6015,-2.6012,-2.5825,0,0,0,-2.5393,-2.53,-2.5436,-2.5367,-2.5556,-2.5686,-2.5586,-2.5832,-2.5861,-2.5941,-2.6019,-2.6023,-2.6017,-2.6013,-2.5834,-2.5754,0,0,0,-2.5318,-2.5291,-2.5317,-2.536,-2.5475,-2.5686,-2.5744,-2.5841,-2.5898,-2.6016,-2.6024,-2.6018,-2.6014,-2.5842,-2.5768,-2.5714,0,0,0,-2.5203,-2.5149,-2.5312,-2.5276,-2.5472,-2.5571,-2.5744,-2.5824,-2.5903,-2.602,-2.6016,-2.6012,-2.5845,-2.5776,-2.5721,-2.5642,-2.5601,0,0,-2.5069,-2.5128,-2.5116,-2.5271,-2.531,-2.5538,-2.555,-2.5733,-2.585,-2.5949,-2.5951,-2.5831,-2.5769,-2.5715,-2.542,-2.5385,0,0,0,-2.5034,-2.5022,-2.5059,-2.513,-2.527,-2.538,-2.5574,-2.5641,-2.5732,-2.5879,-2.5805,-2.5771,-2.5744,-2.5711,-2.5682,-2.5663,-2.5995,-2.5995,-2.5995,-2.4672,-2.4826,-2.4814,-2.4999,-2.5066,-2.5266,-2.5331,-2.5455,-2.5592,-2.5571,-2.5599,-2.5402,-2.5359,-2.5338,-2.5316,-2.5577,-2.5576,-2.5575,-2.5575,-2.4483,-2.4488,-2.4671,-2.4724,-2.4885,-2.493,-2.5118,-2.5213,-2.5274,-2.5394,-2.5378,-2.5489,-2.5296,-2.5285,-2.5562,-2.5565,-2.5566,-2.5567,-2.5568,-2.4257,-2.4286,-2.4371,-2.4488,-2.4559,-2.475,-2.4799,-2.4947,-2.5085,-2.507,-2.511,-2.5114,-2.5129,-2.508,-2.508,-2.5079,-2.5079,-2.5078,-2.5078,-2.3985,-2.4088,-2.4114,-2.4256,-2.4319,-2.442,-2.4619,-2.4683,-2.4791,-2.4893,-2.4895,-2.5025,-2.5253,-2.5301,-2.5067,-2.5069,-2.5071,-2.5071,-2.5072,-2.3724,-2.3807,-2.3845,-2.3908,-2.4085,-2.4141,-2.4331,-2.4448,-2.4524,-2.4541,-2.4679,-2.4825,-2.4895,-2.4919,-2.4959,-2.4652,-2.4652,-2.4652,-2.4652,-2.3527,-2.3579,-2.3649,-2.3739,-2.3844,-2.4018,-2.4049,-2.4201,-2.4371,-2.4425,-2.4493,-2.4562,-2.4581,-2.4639,-2.4669,-2.4709,-2.4345,-2.4344,-2.4344,-2.3371,-2.3439,-2.3439,-2.361,-2.3759,-2.388,-2.3912,-2.4002,-2.4214,-2.4335,-2.4468,-2.4481,-2.4596,-2.4627,-2.4742,-2.4786,-2.4863,0,0]}]]